Ithaca, NY

4:37 PM EDT on July 26, 2016 (GMT -0400)
Tompkins County

Weather History for KITH - February, 2014

Change the Weather History Date:

Saturday, February 22, 2014

  Actual Average Record
Temperature  
Mean Temperature 39 °F -  
Max Temperature 46 °F 37 °F 66 °F (1953)
Min Temperature 32 °F 19 °F -8 °F (1946)
Degree Days  
Heating Degree Days 26    
Moisture  
Dew Point 19 °F    
Average Humidity 44    
Maximum Humidity 58    
Minimum Humidity 33    
Precipitation  
Precipitation 0.00 in - - ()
Sea Level Pressure  
Sea Level Pressure 29.90 in    
Wind  
Wind Speed 12 mph (WSW)    
Max Wind Speed 26 mph    
Max Gust Speed 36 mph    
Visibility 10 miles    
Events      
Averages and records for this station are not official NWS values.
T = Trace of Precipitation, MM = Missing Value Source: NWS Daily Summary

Daily Weather History Graph

Daily Weather History Graph

Search for Another Location

Airport or City:

Trip Planner

Search our weather history database for the weather conditions in past years. The results will help you decide how hot, cold, wet, or windy it might be!

Date:

Astronomy

Feb. 22, 2014 Rise Set
Actual Time 6:52 AM EST 5:46 PM EST
Civil Twilight 6:23 AM EST 6:15 PM EST
Nautical Twilight 5:51 AM EST 6:48 PM EST
Astronomical Twilight 5:18 AM EST 7:20 PM EST
Moon 12:48 AM EST (2/22) 10:52 AM EST (2/22)
Length of Visible Light 11h 51m
Length of Day
10h 54m
Waning Gibbous, 50% of the Moon is Illuminated
Feb 22
Waning Gibbous
Feb 22
Last Quarter
Mar 1
New
Mar 8
First Quarter
Mar 16
Full

Hourly Weather History & Observations

Time (EST) Temp. Windchill Dew Point Humidity Pressure Visibility Wind Dir Wind Speed Gust Speed Precip Events Conditions
12:56 AM 36.0 °F 29.0 °F 18.1 °F 48% 29.86 in 10.0 mi SW 9.2 mph - N/A   Clear
1:56 AM 36.0 °F 30.3 °F 17.1 °F 46% 29.88 in 10.0 mi SW 6.9 mph - N/A   Clear
2:56 AM 36.0 °F 27.5 °F 17.1 °F 46% 29.90 in 10.0 mi WSW 12.7 mph 19.6 mph N/A   Clear
3:56 AM 34.9 °F 26.6 °F 16.2 °F 46% 29.91 in 10.0 mi SW 11.5 mph - N/A   Clear
4:56 AM 34.0 °F 28.0 °F 16.2 °F 48% 29.91 in 10.0 mi SW 6.9 mph - N/A   Clear
5:56 AM 32.9 °F 25.9 °F 16.2 °F 50% 29.88 in 10.0 mi SSW 8.1 mph - N/A   Clear
6:28 AM 33.8 °F 26.4 °F 15.8 °F 48% 29.84 in 10.0 mi SSW 9.2 mph - N/A   Clear
6:56 AM 34.0 °F 24.6 °F 16.2 °F 48% 29.86 in 10.0 mi SSW 13.8 mph - N/A   Clear
7:56 AM 34.9 °F 26.6 °F 16.2 °F 46% 29.86 in 10.0 mi SSW 11.5 mph 21.9 mph N/A   Clear
8:56 AM 39.9 °F 31.1 °F 17.1 °F 40% 29.87 in 10.0 mi WSW 17.3 mph 23.0 mph N/A   Clear
9:56 AM 41.9 °F 32.3 °F 21.0 °F 43% 29.86 in 10.0 mi SW 23.0 mph 32.2 mph N/A   Clear
10:56 AM 43.9 °F 36.8 °F 22.1 °F 42% 29.87 in 10.0 mi WSW 15.0 mph 29.9 mph N/A   Clear
11:56 AM 45.0 °F 37.1 °F 22.1 °F 40% 29.86 in 10.0 mi West 19.6 mph 35.7 mph N/A   Mostly Cloudy
12:56 PM 46.9 °F - 22.1 °F 38% 29.87 in 10.0 mi West 17.3 mph 26.5 mph N/A   Mostly Cloudy
1:56 PM 46.9 °F - 21.0 °F 36% 29.87 in 10.0 mi West 26.5 mph 31.1 mph N/A   Scattered Clouds
2:56 PM 46.9 °F - 19.0 °F 33% 29.88 in 10.0 mi West 20.7 mph 29.9 mph N/A   Scattered Clouds
3:56 PM 45.9 °F 39.4 °F 18.1 °F 33% 29.89 in 10.0 mi West 15.0 mph 27.6 mph N/A   Clear
4:56 PM 45.0 °F 38.9 °F 18.1 °F 34% 29.90 in 10.0 mi West 12.7 mph 18.4 mph N/A   Scattered Clouds
5:56 PM 39.9 °F 34.5 °F 20.1 °F 45% 29.93 in 10.0 mi WNW 8.1 mph - N/A   Mostly Cloudy
6:56 PM 39.9 °F 33.4 °F 19.0 °F 43% 29.95 in 10.0 mi WNW 10.4 mph - N/A   Partly Cloudy
7:56 PM 38.8 °F 32.1 °F 19.0 °F 45% 29.96 in 10.0 mi West 10.4 mph - N/A   Clear
8:56 PM 34.9 °F 30.8 °F 19.0 °F 52% 29.97 in 10.0 mi NW 4.6 mph - N/A   Clear
9:56 PM 38.8 °F 31.6 °F 21.0 °F 49% 29.96 in 10.0 mi West 11.5 mph - N/A   Mostly Cloudy
10:56 PM 38.8 °F 32.1 °F 23.0 °F 53% 29.97 in 10.0 mi West 10.4 mph - N/A   Mostly Cloudy
11:56 PM 39.9 °F 32.1 °F 26.1 °F 58% 29.96 in 10.0 mi WSW 13.8 mph 20.7 mph N/A   Overcast